Location: Unspecified
(0.0000°N, 0.0000°E)
Time: 21:37:32
(UTC+00:00)

CZ-3B DEB - Visible Passes

Search period start: 12 January 2025 00:00
Search period end: 22 January 2025 00:00
Orbit: 787 x 43280 km, 31.2° (Epoch: 11 January)

Date Brightness Start Highest point End Pass type
(mag) Time Alt. Az. Time Alt. Az. Time Alt. Az.
12 Jan ? 04:04:47 10° ESE 05:32:25 15° ESE 06:33:39 10° ESE visible
13 Jan ? 02:11:41 10° ESE 07:40:33 48° SE 10:02:01 10° SE visible
14 Jan ? 00:25:04 27° NE 00:25:04 27° NE 12:49:50 10° ESE visible
15 Jan ? 02:54:10 43° NNW 06:12:27 79° SSE 15:29:19 10° E visible
16 Jan ? 05:23:19 10° WNW 06:52:16 61° W 12:42:12 10° WSW visible
18 Jan ? 02:13:55 10° ESE 06:57:49 41° SE 09:04:03 10° SE visible
18 Jan ? 23:36:03 18° NE 23:36:03 18° NE 11:55:38 10° ESE visible
20 Jan ? 02:05:10 49° N 06:15:40 75° SSE 14:36:18 10° E visible
21 Jan ? 04:34:17 23° NW 05:57:17 71° W 12:44:52 10° WSW visible
